Location: Borealis Mine
(38.3824°N, 118.7610°W)
Time: 18:02:22
(UTC+00:00)

ISS - Visible Passes

Search period start: 19 January 2022 00:00
Search period end: 29 January 2022 00:00
Orbit: 413 x 422 km, 51.6° (Epoch: 19 January)

Date Brightness Start Highest point End Pass type
(mag) Time Alt. Az. Time Alt. Az. Time Alt. Az.
19 Jan -3.4 02:31:03 10° WSW 02:34:20 57° NW 02:35:11 41° NNE visible
20 Jan -3.8 01:43:04 10° SW 01:46:23 79° SE 01:49:25 12° NE visible
20 Jan -1.0 03:21:12 10° WNW 03:22:22 15° NW 03:22:22 15° NW visible
21 Jan -1.9 02:32:35 10° W 02:35:21 23° NNW 02:36:31 19° N visible
22 Jan -2.5 01:44:09 10° W 01:47:14 35° NNW 01:50:21 10° NE visible
23 Jan -1.3 02:34:48 10° NW 02:36:32 13° NNW 02:37:34 12° N visible
24 Jan -1.5 01:45:58 10° WNW 01:48:17 17° NNW 01:50:37 10° NNE visible
26 Jan -1.2 01:48:30 10° NNW 01:49:30 11° NNW 01:50:28 10° N visible
